Weather History for St. Johns, AZ

Change the Weather History Date:

Sunday, February 3, 2013

  Actual Average (KSOW) Record (KSOW)
Temperature  
Mean Temperature 36 °F -  
Max Temperature 44 °F 44 °F 65 °F (1980)
Min Temperature 29 °F 26 °F -9 °F (2011)
Degree Days  
Heating Degree Days 28    
Moisture  
Dew Point 28 °F    
Average Humidity 67    
Maximum Humidity 93    
Minimum Humidity 39    
Precipitation  
Precipitation 0.02 in - - ()
Sea Level Pressure  
Sea Level Pressure 30.11 in    
Wind  
Wind Speed 3 mph (WSW)    
Max Wind Speed 13 mph    
Max Gust Speed -    
Visibility 10 miles    
Events Rain    
Averages and records for this station are not official NWS values.
T = Trace of Precipitation, MM = Missing Value Source: NWS Daily Summary

Daily Weather History Graph

Daily Weather History Graph

Search for Another Location

Airport:

Trip Planner

Search our weather history database for the weather conditions in past years. The results will help you decide how hot, cold, wet, or windy it might be!

Date:

Astronomy

Feb. 03, 2013 Rise Set
Actual Time 7:13 AM MST 5:49 PM MST
Civil Twilight 6:47 AM MST 6:15 PM MST
Nautical Twilight 6:17 AM MST 6:45 PM MST
Astronomical Twilight 5:47 AM MST 7:15 PM MST
Moon 12:44 AM MST (2/3) 11:30 AM MST (2/3)
Length of Visible Light 11h 28m
Length of Day
10h 35m
Waning Gibbous, 48% of the Moon is Illuminated
Feb 3
Waning Gibbous
Feb 10
New
Feb 17
First Quarter
Feb 25
Full
Mar 4
Last Quarter

Hourly Weather History & Observations

Time (MST) Temp. Windchill Dew Point Humidity Pressure Visibility Wind Dir Wind Speed Gust Speed Precip Events Conditions
12:54 AM 30.9 °F - 19.9 °F 64% 30.22 in 10.0 mi Calm Calm - N/A   Clear
1:54 AM 34.0 °F - 19.0 °F 54% 30.19 in 10.0 mi Calm Calm - N/A   Clear
2:54 AM 30.9 °F - 21.0 °F 67% 30.19 in 10.0 mi Calm Calm - N/A   Clear
3:54 AM 32.0 °F 28.7 °F 21.9 °F 66% 30.15 in 10.0 mi South 3.5 mph - N/A   Clear
4:54 AM 32.0 °F - 21.9 °F 66% 30.14 in 10.0 mi Calm Calm - N/A   Clear
5:54 AM 30.0 °F - 24.1 °F 79% 30.18 in 10.0 mi Calm Calm - N/A   Clear
6:54 AM 30.9 °F - 23.0 °F 72% 30.17 in 10.0 mi Calm Calm - N/A   Clear
7:54 AM 30.9 °F - 26.1 °F 82% 30.18 in 10.0 mi Calm Calm - N/A   Scattered Clouds
8:54 AM 35.1 °F - 24.1 °F 64% 30.17 in 10.0 mi Calm Calm - N/A   Scattered Clouds
9:54 AM 39.9 °F - 25.0 °F 55% 30.14 in 10.0 mi Calm Calm - N/A   Mostly Cloudy
10:54 AM 42.1 °F 38.4 °F 26.1 °F 53% 30.14 in 10.0 mi NNW 5.8 mph - N/A   Overcast
11:54 AM 45.0 °F 42.6 °F 24.1 °F 44% 30.11 in 10.0 mi SSE 4.6 mph - N/A   Overcast
12:54 PM 46.9 °F - 25.0 °F 42% 30.07 in 10.0 mi North 6.9 mph - N/A   Overcast
1:54 PM 48.0 °F - 25.0 °F 41% 30.02 in 10.0 mi NNW 3.5 mph - N/A   Overcast
2:54 PM 48.0 °F - 24.1 °F 39% 30.01 in 10.0 mi WNW 4.6 mph - N/A   Overcast
3:54 PM 48.9 °F - 26.1 °F 41% 30.00 in 10.0 mi Calm Calm - N/A   Overcast
4:54 PM 46.9 °F - 27.0 °F 46% 29.99 in 10.0 mi West 3.5 mph - 0.00 in Rain Light Rain
5:54 PM 43.0 °F 36.4 °F 34.0 °F 71% 30.04 in 10.0 mi West 12.7 mph - 0.00 in Rain Light Rain
6:54 PM 39.9 °F 33.4 °F 35.1 °F 83% 30.07 in 9.0 mi West 10.4 mph - 0.01 in Rain Light Rain
7:54 PM 37.9 °F 32.1 °F 34.0 °F 86% 30.09 in 10.0 mi WNW 8.1 mph - 0.00 in   Overcast
8:39 PM 37.4 °F 31.4 °F 35.6 °F 93% 30.12 in 8.0 mi South 8.1 mph - N/A Rain Light Rain
8:54 PM 37.9 °F 33.5 °F 35.1 °F 89% 30.09 in 10.0 mi SW 5.8 mph - 0.01 in Rain Light Rain
9:17 PM 37.4 °F 32.8 °F 35.6 °F 93% 30.12 in 10.0 mi SSW 5.8 mph - 0.00 in Rain Light Rain
9:54 PM 37.9 °F 32.1 °F 35.1 °F 89% 30.06 in 10.0 mi SSW 8.1 mph - 0.00 in Rain Light Rain
10:54 PM 37.9 °F 33.5 °F 36.0 °F 93% 30.05 in 10.0 mi SW 5.8 mph - 0.00 in   Overcast
11:54 PM 37.9 °F 34.4 °F 35.1 °F 89% 30.04 in 10.0 mi SSW 4.6 mph - N/A   Overcast